FENGYUN 3C

Last updated on Wed Sep 23 2026 00:03:10 GMT+0000 (Coordinated Universal Time)

1 39260U 13052A 26265.57274567 .00000034 00000+0 38441-4 0 9995 2 39260 98.5115 235.0325 0015793 102.0216 258.2730 14.15773013672349
UTC large
Height (km)
Speed (km/s)
/
Latitude / Longitude
Inclination (degrees)
Orbital Period (minutes)
Azimuth
Elevation
Range (km)
Doppler Factor

Next 0 passes for location: London (51.5072 / 0.1276)

No passes found over London.
FENGYUN 3C